KLM641 KDEN-KCOS

Flight info

Callsign KLM641
Flight time 0h 17m
Altitude 11000
Route LUFSE V389 ADANE/N0420F160 BRK
Aircraft B78X/H-SDE1E2E3FGHIJ2J3J4J5M1RWXY/LB1D1

Departure

Time 2026-04-12 03:24
Airport Denver International Airport (KDEN)

Arrival

Time 2026-04-12 03:42
Airport City of Colorado Springs Municipal Airport (KCOS)
Time Latitude Longitude Altitude Speed Heading
2026-04-12 03:05 39.85962 -104.68291 5385 ft 0 kts 270°
2026-04-12 03:16 39.85962 -104.68292 5385 ft 0 kts 270°
2026-04-12 03:17 39.85962 -104.68293 5385 ft 0 kts 270°
2026-04-12 03:17 39.85962 -104.68294 5385 ft 1 kts 270°
2026-04-12 03:17 39.85964 -104.68338 5376 ft 10 kts 282°
2026-04-12 03:17 39.86031 -104.68386 5372 ft 13 kts 352°
2026-04-12 03:18 39.86142 -104.68391 5372 ft 18 kts 359°
2026-04-12 03:18 39.86294 -104.68391 5369 ft 25 kts
2026-04-12 03:18 39.86418 -104.68300 5375 ft 18 kts 76°
2026-04-12 03:18 39.86422 -104.68252 5380 ft 0 kts 88°
2026-04-12 03:19 39.86425 -104.68236 5383 ft 8 kts 79°
2026-04-12 03:19 39.86474 -104.68034 5392 ft 29 kts 83°
2026-04-12 03:19 39.86476 -104.67762 5392 ft 31 kts 90°
2026-04-12 03:19 39.86474 -104.67465 5392 ft 34 kts 90°
2026-04-12 03:20 39.86472 -104.67141 5392 ft 37 kts 90°
2026-04-12 03:20 39.86470 -104.66813 5385 ft 35 kts 91°
2026-04-12 03:20 39.86492 -104.66527 5386 ft 26 kts 70°
2026-04-12 03:20 39.86502 -104.66328 5386 ft 23 kts 90°
2026-04-12 03:21 39.86498 -104.66139 5387 ft 22 kts 88°
2026-04-12 03:21 39.86499 -104.65937 5375 ft 23 kts 90°
2026-04-12 03:21 39.86496 -104.65721 5372 ft 25 kts 92°
2026-04-12 03:21 39.86491 -104.65491 5368 ft 26 kts 90°
2026-04-12 03:22 39.86502 -104.65252 5361 ft 26 kts 86°
2026-04-12 03:22 39.86492 -104.65018 5358 ft 26 kts 95°
2026-04-12 03:22 39.86486 -104.64787 5356 ft 26 kts 89°
2026-04-12 03:22 39.86488 -104.64548 5349 ft 27 kts 90°
2026-04-12 03:23 39.86486 -104.64299 5344 ft 25 kts 90°
2026-04-12 03:23 39.86450 -104.64139 5340 ft 7 kts 161°
2026-04-12 03:23 39.86428 -104.64136 5342 ft 1 kts 174°
2026-04-12 03:23 39.86424 -104.64136 5343 ft 2 kts 175°
2026-04-12 03:24 39.86242 -104.64135 5345 ft 62 kts 180°
2026-04-12 03:24 39.85548 -104.64142 5358 ft 136 kts 180°
2026-04-12 03:24 39.84403 -104.64154 5457 ft 190 kts 176°
2026-04-12 03:24 39.83010 -104.64148 6103 ft 205 kts 178°
2026-04-12 03:25 39.81582 -104.63867 7077 ft 210 kts 166°
2026-04-12 03:25 39.80276 -104.63063 8163 ft 207 kts 153°
2026-04-12 03:25 39.79023 -104.61921 8740 ft 237 kts 145°
2026-04-12 03:25 39.77761 -104.60551 9426 ft 241 kts 143°
2026-04-12 03:26 39.76465 -104.59107 9795 ft 247 kts 143°
2026-04-12 03:26 39.74992 -104.58000 9872 ft 245 kts 172°
2026-04-12 03:26 39.73311 -104.57543 10039 ft 256 kts 168°
2026-04-12 03:26 39.71562 -104.56844 10102 ft 270 kts 166°
2026-04-12 03:27 39.69727 -104.56117 10160 ft 280 kts 167°
2026-04-12 03:27 39.67833 -104.55425 10399 ft 284 kts 168°
2026-04-12 03:27 39.65953 -104.54747 10665 ft 285 kts 168°
2026-04-12 03:27 39.64032 -104.54037 10875 ft 289 kts 168°
2026-04-12 03:28 39.62087 -104.53319 10886 ft 288 kts 168°
2026-04-12 03:28 39.60154 -104.52607 10883 ft 292 kts 168°
2026-04-12 03:28 39.58207 -104.51893 10871 ft 290 kts 168°
2026-04-12 03:28 39.56269 -104.51180 10857 ft 289 kts 168°
2026-04-12 03:29 39.54323 -104.50467 10847 ft 291 kts 168°
2026-04-12 03:29 39.52383 -104.49754 10838 ft 290 kts 168°
2026-04-12 03:29 39.50437 -104.49041 10824 ft 291 kts 168°
2026-04-12 03:29 39.48497 -104.48330 10825 ft 290 kts 168°
2026-04-12 03:30 39.46547 -104.47618 10809 ft 289 kts 168°
2026-04-12 03:30 39.44605 -104.46906 10820 ft 292 kts 168°
2026-04-12 03:30 39.42660 -104.46193 10811 ft 290 kts 168°
2026-04-12 03:30 39.40712 -104.45480 10808 ft 291 kts 168°
2026-04-12 03:31 39.38765 -104.44771 10799 ft 290 kts 168°
2026-04-12 03:31 39.36823 -104.44060 10801 ft 291 kts 168°
2026-04-12 03:31 39.34870 -104.43349 10801 ft 291 kts 168°
2026-04-12 03:31 39.32922 -104.42638 10804 ft 291 kts 168°
2026-04-12 03:32 39.30889 -104.41903 10821 ft 321 kts 168°
2026-04-12 03:32 39.28595 -104.41078 10827 ft 361 kts 168°
2026-04-12 03:32 39.26105 -104.40165 10847 ft 382 kts 167°
2026-04-12 03:32 39.23550 -104.39221 10863 ft 384 kts 167°
2026-04-12 03:33 39.20974 -104.38519 10885 ft 379 kts 180°
2026-04-12 03:33 39.18354 -104.38561 10910 ft 378 kts 185°
2026-04-12 03:33 39.15724 -104.38692 10923 ft 376 kts 186°
2026-04-12 03:33 39.13105 -104.38851 10937 ft 377 kts 186°
2026-04-12 03:34 39.10577 -104.39469 10958 ft 366 kts 207°
2026-04-12 03:34 39.08631 -104.41348 10979 ft 337 kts 232°
2026-04-12 03:34 39.07397 -104.43742 10880 ft 304 kts 243°
2026-04-12 03:34 39.06485 -104.46055 10782 ft 276 kts 246°
2026-04-12 03:35 39.05710 -104.48190 10660 ft 252 kts 246°
2026-04-12 03:35 39.05101 -104.50167 10556 ft 230 kts 254°
2026-04-12 03:35 39.04695 -104.52073 10382 ft 213 kts 257°
2026-04-12 03:35 39.04340 -104.53891 10047 ft 207 kts 257°
2026-04-12 03:36 39.03995 -104.55676 9598 ft 205 kts 257°
2026-04-12 03:36 39.03653 -104.57437 9114 ft 201 kts 257°
2026-04-12 03:36 39.03317 -104.59181 9049 ft 202 kts 258°
2026-04-12 03:36 39.02974 -104.60934 9054 ft 204 kts 257°
2026-04-12 03:37 39.02633 -104.62709 9045 ft 200 kts 257°
2026-04-12 03:37 39.02297 -104.64457 9036 ft 203 kts 257°
2026-04-12 03:37 39.01937 -104.66224 9042 ft 209 kts 251°
2026-04-12 03:37 39.01097 -104.67706 9037 ft 208 kts 218°
2026-04-12 03:38 38.99799 -104.68594 9207 ft 213 kts 209°
2026-04-12 03:38 38.98345 -104.68980 9153 ft 221 kts 185°
2026-04-12 03:38 38.96820 -104.68862 9133 ft 218 kts 180°
2026-04-12 03:38 38.95354 -104.68589 8733 ft 211 kts 175°
2026-04-12 03:39 38.93922 -104.68404 8156 ft 202 kts 182°
2026-04-12 03:39 38.92584 -104.68474 7881 ft 184 kts 185°
2026-04-12 03:39 38.91298 -104.68512 7695 ft 191 kts 181°
2026-04-12 03:39 38.89889 -104.68552 7615 ft 212 kts 182°
2026-04-12 03:40 38.88451 -104.68556 7388 ft 199 kts 180°
2026-04-12 03:40 38.87041 -104.68541 6984 ft 207 kts 180°
2026-04-12 03:40 38.85628 -104.68541 6799 ft 202 kts 180°
2026-04-12 03:40 38.84228 -104.68577 6639 ft 195 kts 180°
2026-04-12 03:41 38.82896 -104.68591 6453 ft 189 kts 178°
2026-04-12 03:41 38.81653 -104.68581 6256 ft 172 kts 177°
2026-04-12 03:41 38.80568 -104.68578 6198 ft 129 kts 180°
2026-04-12 03:41 38.79967 -104.68575 6199 ft 57 kts 178°
2026-04-12 03:42 38.79570 -104.68575 6197 ft 56 kts 185°
2026-04-12 03:42 38.79206 -104.68650 6197 ft 50 kts 206°
2026-04-12 03:42 38.79047 -104.68767 6198 ft 5 kts 198°
2026-04-12 03:42 38.79043 -104.68769 6198 ft 0 kts 198°
2026-04-12 03:43 38.79003 -104.68782 6197 ft 13 kts 191°
2026-04-12 03:43 38.78873 -104.68789 6198 ft 25 kts 180°
2026-04-12 03:44 38.78671 -104.68789 6198 ft 30 kts 178°
2026-04-12 03:44 38.78559 -104.68726 6197 ft 6 kts 139°
2026-04-12 03:44 38.78528 -104.68749 6197 ft 3 kts 253°
2026-04-12 03:44 38.78633 -104.68787 6199 ft 29 kts 358°
2026-04-12 03:45 38.78892 -104.68790 6197 ft 46 kts
2026-04-12 03:45 38.79330 -104.68790 6198 ft 70 kts
2026-04-12 03:45 38.79798 -104.68790 6197 ft 65 kts 359°
2026-04-12 03:45 38.80199 -104.68789 6199 ft 33 kts 359°
2026-04-12 03:46 38.80278 -104.68923 6198 ft 26 kts 271°
2026-04-12 03:46 38.80278 -104.69316 6200 ft 50 kts 270°
2026-04-12 03:46 38.80267 -104.69696 6199 ft 19 kts 245°
2026-04-12 03:46 38.80147 -104.69726 6199 ft 22 kts 179°
2026-04-12 03:47 38.80060 -104.69838 6199 ft 20 kts 270°
2026-04-12 03:47 38.80006 -104.70011 6199 ft 11 kts 227°
2026-04-12 03:47 38.79991 -104.70030 6199 ft 0 kts 224°